CW5174 Weather Reports


Display with metric or nautical units.
time (UTC)temp
F
wind
direction
speed
MPH
gust
MPH
rain 1hr
in
rain 24hr
in
rain mn
in
humidity
%
barometer
mb
20190326183108 50 158 0.0 0.0 0.00 0.00 0.00 75 1017.4
20190326181539 49 158 0.0 0.0 0.00 0.00 0.00 78 1017.3
20190326180041 49 158 0.0 0.0 0.00 0.00 0.00 77 1017.3
20190326174529 49 158 0.0 0.0 0.00 0.00 0.00 83 1017.0
20190326173028 47 158 0.0 0.0 0.00 0.00 0.00 83 1017.0
20190326171518 47 158 0.0 0.0 0.00 0.00 0.00 86 1017.1
20190326170026 46 158 0.0 0.0 0.00 0.00 0.00 86 1017.0
20190326164522 46 158 0.0 0.0 0.00 0.00 0.00 88 1016.9
20190326163007 45 158 0.0 0.0 0.00 0.00 0.00 90 1016.9
20190326160221 44 158 0.0 0.0 0.00 0.00 0.00 91 1016.8
20190326154620 0 0.0 0.0 0.00 0.00 0.00 1016.6
20190326153115 0 0.0 0.0 0.00 0.00 0.00 1016.5
20190326151616 0 0.0 0.0 0.00 0.00 0.00 1016.5
20190326150135 0 0.0 0.0 0.00 0.00 0.00 1016.4
20190326144619 0 0.0 0.0 0.00 0.00 0.00 1016.4
20190326143140 0 0.0 0.0 0.00 0.00 0.00 1016.4
20190326141639 0 0.0 0.0 0.00 0.00 0.00 1016.0
20190326140039 0 0.0 0.0 0.00 0.00 0.00 1015.8
20190326134620 0 0.0 0.0 0.00 0.00 0.00 1015.6
20190326133101 0 0.0 0.0 0.00 0.00 0.00 1015.5
20190326131528 0 0.0 0.0 0.00 0.00 0.00 1015.4
20190326130028 0 0.0 0.0 0.00 0.00 0.00 1015.3
20190326124545 0 0.0 0.0 0.00 0.00 0.00 1015.2
20190326123002 0 0.0 0.0 0.00 0.00 0.00 1015.2
20190326121631 0 0.0 0.0 0.00 0.00 0.00 1015.1
20190326120120 0 0.0 0.0 0.00 0.00 0.00 1014.6
20190326114650 0 0.0 0.0 0.00 0.00 0.00 1014.6
20190326113139 0 0.0 0.0 0.00 0.00 0.00 1014.6
20190326111612 0 0.0 0.0 0.00 0.00 0.00 1014.6
20190326110045 0 0.0 0.0 0.00 0.00 0.00 1014.5
20190326104547 0 0.0 0.0 0.00 0.00 0.00 1014.5
20190326103053 0 0.0 0.0 0.00 0.00 0.00 1014.2
20190326101627 0 0.0 0.0 0.00 0.00 0.00 1014.2
20190326100045 0 0.0 0.0 0.00 0.00 0.00 1014.2
20190326094529 0 0.0 0.0 0.00 0.00 0.00 1014.1
20190326093017 0 0.0 0.0 0.00 0.00 0.00 1014.0
20190326091513 0 0.0 0.0 0.00 0.00 0.00 1013.9
20190326090003 0 0.0 0.0 0.00 0.00 0.00 1013.7
20190326084711 0 0.0 0.0 0.00 0.00 0.00 1013.7
20190326083143 0 0.0 0.0 0.00 0.00 0.00 1013.5
20190326081605 0 0.0 0.0 0.00 0.00 0.00 1013.5
20190326080142 0 0.0 0.0 0.00 0.00 0.00 1013.5
20190326074554 44 158 0.0 0.0 0.00 0.00 0.00 93 1013.7
20190326073125 44 158 0.0 0.0 0.00 0.00 0.00 94 1013.7
20190326071646 44 142 0.0 0.0 0.00 0.00 0.00 94 1013.3
20190326070159 44 142 0.0 0.0 0.00 0.00 0.00 94 1013.3
20190326064700 44 142 0.0 0.0 0.00 0.00 0.13 94 1013.2
20190326063043 44 158 0.0 0.0 0.00 0.00 0.13 94 1013.2
20190326061708 44 158 0.0 0.0 0.00 0.00 0.13 94 1013.2
20190326060106 44 158 0.0 0.0 0.00 0.00 0.13 95 1012.9
20190326054608 44 158 0.0 0.0 0.00 0.00 0.13 95 1012.7
20190326053108 44 158 0.0 0.0 0.00 0.00 0.13 94 1012.3
20190326051600 45 142 0.0 0.0 0.00 0.00 0.13 95 1012.3
20190326050127 45 158 0.0 0.0 0.00 0.00 0.13 95 1012.1
20190326044548 45 158 0.0 0.0 0.00 0.00 0.13 96 1011.8
20190326043132 45 158 0.0 0.0 0.00 0.00 0.13 95 1011.9
20190326041548 45 142 0.0 0.0 0.00 0.00 0.13 95 1011.8
20190326040114 45 158 0.0 0.0 0.00 0.00 0.13 95 1011.8
20190326034614 44 158 0.0 0.0 0.00 0.00 0.13 94 1011.7
20190326033057 44 158 0.0 0.0 0.00 0.00 0.13 94 1011.6
20190326031557 45 158 0.0 0.0 0.00 0.00 0.13 93 1011.7
20190326030045 45 158 0.0 0.0 0.00 0.00 0.11 93 1011.6
20190326024610 46 158 0.0 0.0 0.00 0.00 0.10 92 1011.4
20190326023047 46 158 0.0 0.0 0.00 0.00 0.07 91 1011.3
20190326021603 47 158 0.0 0.0 0.00 0.00 0.05 90 1011.2
20190326020049 48 158 0.0 0.0 0.00 0.00 0.03 88 1010.7
20190326014548 50 142 0.0 0.0 0.00 0.00 0.01 84 1010.6
20190326013054 50 142 0.0 0.0 0.00 0.00 0.00 78 1010.4
20190326011601 51 158 0.0 0.0 0.00 0.00 0.00 73 1010.0
20190326010049 52 158 0.0 0.0 0.00 0.00 0.00 71 1009.9
20190326004610 52 158 0.0 0.0 0.00 0.00 0.00 70 1009.7
20190326003039 53 158 0.0 0.0 0.00 0.00 0.00 67 1009.6
20190326001615 54 158 0.0 0.0 0.00 0.00 0.00 65 1009.4
20190326000149 56 158 0.0 0.0 0.00 0.00 0.00 62 1008.9
20190325234600 57 158 0.0 0.0 0.00 0.00 0.00 59 1008.5
20190325233029 58 158 0.0 0.0 0.00 0.00 0.00 59 1008.3
20190325231534 57 158 0.0 0.0 0.00 0.00 0.00 62 1008.1
20190325230031 58 158 0.0 0.0 0.00 0.00 0.00 63 1008.2
20190325224609 59 158 0.0 0.0 0.00 0.00 0.00 62 1008.3
20190325223029 59 158 0.0 0.0 0.00 0.00 0.00 57 1008.2
20190325221550 57 158 0.0 0.0 0.00 0.00 0.00 65 1008.7
20190325220030 56 158 0.0 0.0 0.00 0.00 0.00 71 1008.9
20190325214529 56 158 0.0 0.0 0.00 0.00 0.00 73 1009.4
20190325213018 56 142 0.0 0.0 0.00 0.00 0.00 72 1009.6
20190325211536 57 158 0.0 0.0 0.00 0.00 0.00 69 1009.7
20190325210054 59 158 0.0 0.0 0.00 0.00 0.00 65 1009.8
20190325204542 59 158 0.0 0.0 0.00 0.00 0.00 52 1009.8
20190325203011 59 158 0.0 0.0 0.00 0.00 0.00 54 1010.0
20190325201513 58 158 0.0 0.0 0.00 0.00 0.00 56 1010.4
20190325200020 57 158 0.0 0.0 0.00 0.00 0.00 60 1010.4
20190325194503 56 158 0.0 0.0 0.00 0.00 0.00 66 1010.5
20190325193144 56 142 0.0 0.0 0.00 0.00 0.00 68 1010.8
20190325191639 55 158 0.0 0.0 0.00 0.00 0.00 68 1011.1
20190325190158 54 158 0.0 0.0 0.00 0.00 0.00 69 1011.4
20190325184709 53 158 0.0 0.0 0.00 0.00 0.00 71 1011.8
20190325183216 54 158 0.0 0.0 0.00 0.00 0.00 72 1011.9